Loisir ou Compétition : Rejoignez un Club de la Fédération

Résultats

GP VILLARD SUR BOEGE

Plaine-Joux

FS Hommes

Jury de Compétition

Délégué Technique :
BOSCHAT AMAURY (MB)
D.T. Adjoint :
SUTTER YOHANN (MB)
Dir. Epreuve :
 

Caractéristiques de la Piste

Piste :
Repli
Distance :
5,0 km
Point Haut :
1230 m
Point Bas :
1170 m
Montée Tot. :
 
Montée Max. :
 
Homologation :
 

Pénalité Appliquée :
240.0000
Coefficient :
 

Catégorie :
U15
Style :
C
Clt Dos Clt/Cat Code An Nom Prénom Com Club Temps Ecart Points
Classés
1 243 1/U15 FFS2670259 2004 BLANCHARD TITOUAN MB CS LA CLUSAZ 13:56.2 00:00.0 240.00
2 235 2/U15 FFS2686663 2005 PERRILLAT BOITEUX ANTHONY MB SC GD BORNAN 14:50.4 00:54.2 291.85
3 230 3/U15 FFS2686242 2005 VIGUIER QUENTIN MB CS LA CLUSAZ 14:51.4 00:55.2 292.81
4 237 4/U15 FFS2662962 2004 PANISSET SIMON MB SC GD BORNAN 15:00.4 01:04.2 301.42
5 242 5/U15 FFS2686938 2005 VALLEIX JORIS MB SCNP ROCHOIS 15:05.8 01:09.6 306.59
6 238 6/U15 FFS2670261 2004 FAVRE REGUILLON MATHELYO MB CS LA CLUSAZ 15:07.5 01:11.3 308.21
7 231 7/U15 FFS2680962 2004 PERRILLAT COLLOMB MATHEO MB SC GD BORNAN 15:12.4 01:16.2 312.90
8 241 8/U15 FFS2671565 2005 COLOMBAN ALEXIS MB SCNP ROCHOIS 15:12.5 01:16.3 313.00
9 240 9/U15 FFS2686681 2005 DELOCHE LINO MB SC GD BORNAN 15:19.9 01:23.7 320.08
10 236 10/U15 FFS2648791 2004 FORTINA ADAM MB SC CONTAMINE 15:20.3 01:24.1 320.46
11 227 11/U15 FFS2682010 2004 BONAVENT THOMAS MB SC D'AGY 15:26.6 01:30.4 326.49
12 226 12/U15 FFS2681588 2004 GENTET RONAN MB CS ARGENTIER 15:35.0 01:38.8 334.52
13 239 13/U15 FFS2686939 2005 GRENARD MAX MB SCNP ROCHOIS 15:40.6 01:44.4 339.88
14 223 14/U15 FFS2676910 2005 CLAVEL SIMON MB CS LA CLUSAZ 15:42.5 01:46.3 341.70
15 217 15/U15 FFS2673756 2005 PEYRON ARTHUR MB CS CHAMONIX 15:46.0 01:49.8 345.05
16 228 16/U15 FFS2682178 2004 BIOLLAZ THOMAS MB PRAZ LYS-SOM 15:47.2 01:51.0 346.19
17 208 17/U15 FFS2681171 2005 LUZET HUGO MB CS LA CLUSAZ 15:52.3 01:56.1 351.07
18 233 18/U15 FFS2686282 2004 DIERSTEIN ARTHUR MB CNG 15:54.6 01:58.4 353.27
19 221 19/U15 FFS2668129 2004 BAUD CESAR MB LES GETS S.C 15:54.8 01:58.6 353.47
19 234 19/U15 FFS2696374 2004 FUCHS ARTHUR MB CS LA CLUSAZ 15:54.8 01:58.6 353.47
21 229 21/U15 FFS2686695 2005 PERRILLAT BOTTONET JUDICA MB SC GD BORNAN 16:00.7 02:04.5 359.11
22 220 22/U15 FFS2666324 2005 FAVRE FELIX KILLIAN MB SC GD BORNAN 16:02.0 02:05.8 360.35
23 225 23/U15 FFS2682024 2004 MILLAN SYLVAIN MB VILLARD/BOEG 16:28.7 02:32.5 385.90
24 219 24/U15 FFS2681277 2004 PETILLEON TAO MB PRAZ LYS-SOM 16:36.0 02:39.8 392.88
25 213 25/U15 FFS2692552 2005 PETROD BASTIEN MB CNG 16:42.5 02:46.3 399.10
26 194 26/U15 FFS2688678 2005 REPELLIN CHARLES MB VILLARD/BOEG 16:44.1 02:47.9 400.63
27 218 27/U15 FFS2663071 2004 BEGUEX LOUIS MB VILLARD/BOEG 17:01.5 03:05.3 417.28
28 209 28/U15 FFS2692551 2004 PEIGNE VICTOR MB CNG 17:02.2 03:06.0 417.95
29 203 29/U15 FFS2690183 2004 BILDGEN TIMOTHE MB VILLARD/BOEG 17:02.3 03:06.1 418.04
30 210 30/U15 FFS2686940 2005 LEVET PROSPER MB SCNP ROCHOIS 17:05.9 03:09.7 421.49
31 224 31/U15 FFS2666342 2005 OUVRIER BUFFET JULES MB CS LA CLUSAZ 17:11.5 03:15.3 426.85
32 200 32/U15 FFS2687035 2005 CORNU MATHIEU MB CS CHAMONIX 17:19.5 03:23.3 434.50
33 204 33/U15 FFS2666956 2004 BLAIZE REMI MB VILLARD/BOEG 17:20.8 03:24.6 435.74
34 211 34/U15 FFS2687102 2005 SYLVESTRE BARON PAUL MB SCNP ROCHOIS 17:25.7 03:29.5 440.43
35 212 35/U15 FFS2660349 2004 DELOCHE TRISTAN MB SC GD BORNAN 17:34.3 03:38.1 448.66
36 216 36/U15 FFS2681002 2004 GONIN LEANDRE MB SC GD BORNAN 17:35.4 03:39.2 449.71
37 199 37/U15 FFS2680344 2005 DELERCE GASPARD MB LES GETS S.C 17:37.8 03:41.6 452.01
38 198 38/U15 FFS2686260 2005 BOSSUT AUGUSTIN MB PRAZ LYS-SOM 17:38.7 03:42.5 452.87
39 201 39/U15 FFS2686853 2004 PIERS NOE MB CNG 17:44.8 03:48.6 458.70
40 202 40/U15 FFS2690481 2005 THABUIS BASILE MB VILLARD/BOEG 17:49.6 03:53.4 463.30
41 190 41/U15 FFS2690844 2005 HAEBERLI ARTHUR MB CS LA CLUSAZ 17:50.5 03:54.3 464.16
42 191 42/U15 FFS2663262 2004 LANVERS MATTEO MB VILLARD/BOEG 17:52.1 03:55.9 465.69
43 196 43/U15 FFS2687103 2005 MOREAU SIMEON MB SCNP ROCHOIS 17:57.9 04:01.7 471.24
44 197 44/U15 FFS2686259 2005 DUCREY BRICE MB PRAZ LYS-SOM 18:04.8 04:08.6 477.84
45 187 45/U15 FFS2688657 2005 BARD ILANN MB VILLARD/BOEG 18:09.3 04:13.1 482.14
46 206 46/U15 FFS2683536 2004 JACQUEMARD SWAN MB CS ARGENTIER 18:23.7 04:27.5 495.92
47 184 47/U15 FFS2682466 2004 THEVENOD JULES MB VILLARD/BOEG 18:30.9 04:34.7 502.81
48 195 48/U15 FFS2682327 2004 GURLIAT MATHIS MB SCNP ROCHOIS 18:36.1 04:39.9 507.78
49 189 49/U15 FFS2686905 2005 MIR EMARATI MILO MB CS CHAMONIX 18:36.7 04:40.5 508.36
50 182 50/U15 FFS2686262 2005 LESSERTISSEUX VALENTIN MB PRAZ LYS-SOM 18:39.6 04:43.4 511.13
51 188 51/U15 FFS2676738 2005 CHETAIL JULES MB CS MEGEVE 18:48.0 04:51.8 519.17
52 192 52/U15 FFS2697012 2004 VIRON ADRIEN MB SCNP ROCHOIS 18:54.2 04:58.0 525.10
53 183 53/U15 FFS2681813 2004 ANGRAND LOUIS MB VILLARD/BOEG 18:57.3 05:01.1 528.07
54 193 54/U15 FFS2663405 2004 JOCHUM ADRIEN MB LES GETS S.C 18:58.6 05:02.4 529.31
55 205 55/U15 FFS2696236 2005 MONGELLAZ JULES MB SC CONTAMINE 19:26.0 05:29.8 555.52
56 207 56/U15 FFS2688658 2005 COLLOMB EMILIO MB VILLARD/BOEG 19:35.3 05:39.1 564.42
57 186 57/U15 FFS2692697 2004 NEGRO NICOLAS MB SC D'AGY 20:14.7 06:18.5 602.11
58 181 58/U15 FFS2687856 2005 VEISY KILLIAN MB EN HT GIFFRE 22:40.8 08:44.6 741.89
Non partants
185 FFS2686284 2004 DIERSTEIN CLEMENT MB CNG
214 FFS2681169 2004 JOSSERAND ANTOINE MB CS LA CLUSAZ
215 FFS2681321 2004 BETRIX ALEXIS MB CHABLAIS NOR
222 FFS2681260 2004 BOEHLER DORIAN MB LES GETS S.C
232 FFS2678952 2004 FAVRE BONVIN TITOUAN MB SC GD BORNAN